Weather reports worldwide

Advertisment
Cagliari/Elmas, Italy (16560): temperature & dewpoint: 03.08.2020 22:00:00 - 09.08.2020 22:00:00 (CEST)Cagliari/Elmas, Italy (16560): wind speed: 03.08.2020 22:00:00 - 09.08.2020 22:00:00 (CEST)Cagliari/Elmas, Italy (16560): wind direction: 03.08.2020 22:00:00 - 09.08.2020 22:00:00 (CEST)Cagliari/Elmas, Italy (16560): reduced air pressure: 03.08.2020 22:00:00 - 09.08.2020 22:00:00 (CEST)Cagliari/Elmas, Italy (16560): visibility: 03.08.2020 22:00:00 - 09.08.2020 22:00:00 (CEST)Cagliari/Elmas, Italy (16560): precipitation: 03.08.2020 22:00:00 - 09.08.2020 22:00:00 (CEST)
Date & Time tt [°C] td [°C] ff [km/h] ff [kn] dd ppp [hPa] vv [km] rr [mm]
09.08.2020 22:00:00 26,0 19,0 11 6 SE - 10 -
09.08.2020 21:00:00 28,0 17,0 11 6 S - 10 -
09.08.2020 20:00:00 28,2 18,3 13 7 S 1014,2 10 -
09.08.2020 19:00:00 29,0 19,0 18 10 S - 10 -
09.08.2020 18:00:00 30,0 18,0 24 13 S - 10 -
09.08.2020 17:00:00 30,7 18,5 22 12 S 1014,2 10 0,0
09.08.2020 16:00:00 31,0 20,0 24 13 S - 10 -
09.08.2020 15:00:00 31,0 18,0 21 11 S - 10 -
09.08.2020 14:00:00 31,8 17,2 18 10 S 1014,5 10 -
09.08.2020 13:00:00 33,0 15,0 15 8 S - 10 -
09.08.2020 12:00:00 33,0 12,0 8 4 W - 10 -
09.08.2020 11:00:00 31,1 14,2 13 7 W 1015,2 10 0,0
09.08.2020 10:00:00 29,0 15,0 13 7 WNW - 10 -
09.08.2020 09:00:00 25,0 17,0 13 7 NNW - 10 -
09.08.2020 08:00:00 23,0 18,3 13 7 NW 1015,1 10 -
09.08.2020 07:00:00 21,0 18,0 13 7 NNW - 10 -
09.08.2020 06:00:00 22,0 19,0 13 7 NW - 10 -
09.08.2020 05:00:00 21,8 18,4 11 6 NW 1014,9 10 0,0
09.08.2020 04:00:00 - - - - - - - -
09.08.2020 03:00:00 23,0 19,0 11 6 WNW - 10 -
09.08.2020 02:00:00 23,1 17,7 5 3 NNW 1015,6 10 -
09.08.2020 01:00:00 24,0 17,0 8 4 N - 10 -
09.08.2020 00:00:00 26,0 16,0 11 6 N - 10 -
08.08.2020 23:00:00 25,9 14,7 11 6 NNE 1015,9 10 0,0
08.08.2020 22:00:00 26,0 23,0 4 2 SSE - 10 -
08.08.2020 21:00:00 27,0 23,0 9 5 SE - 10 -
08.08.2020 20:00:00 27,3 23,1 8 4 S 1015,5 10 -
08.08.2020 19:00:00 29,0 20,0 16 9 SSE - 10 -
08.08.2020 18:00:00 29,0 21,0 15 8 ESE - 10 -
08.08.2020 17:00:00 29,7 21,8 16 9 SSE 1015,5 10 0,0
08.08.2020 16:00:00 31,0 19,0 18 10 SSE - 10 -
08.08.2020 15:00:00 32,0 17,0 21 11 SSE - 10 -
08.08.2020 14:00:00 31,6 18,0 18 10 S 1016,0 10 -
08.08.2020 13:00:00 34,0 13,0 11 6 WSW - 10 -
08.08.2020 12:00:00 32,0 14,0 13 7 WNW - 10 -
08.08.2020 11:00:00 29,8 16,4 15 8 WNW 1017,3 10 0,0
08.08.2020 10:00:00 27,0 18,0 15 8 NNW - 10 -
08.08.2020 09:00:00 24,0 19,0 11 6 NW - 10 -
08.08.2020 08:00:00 22,1 19,2 15 8 WNW 1017,9 10 -
08.08.2020 07:00:00 20,0 18,0 11 6 NNW - 10 -
08.08.2020 06:00:00 21,0 19,0 11 6 NNW - 10 -
08.08.2020 05:00:00 20,6 18,6 9 5 NW 1017,3 10 0,0
08.08.2020 04:00:00 22,0 19,0 9 5 NW - 10 -
08.08.2020 03:00:00 22,0 19,0 9 5 WNW - 10 -
08.08.2020 02:00:00 22,5 18,6 8 4 NW 1017,4 10 -
08.08.2020 01:00:00 24,0 18,0 5 3 NE - 10 -
08.08.2020 00:00:00 24,0 19,0 9 5 NE - 10 -
07.08.2020 23:00:00 25,7 20,2 9 5 SSW 1017,4 10 0,0
07.08.2020 22:00:00 26,0 20,0 11 6 S - 10 -
07.08.2020 21:00:00 27,0 18,0 9 5 SSE - 10 -
07.08.2020 20:00:00 27,1 18,0 22 12 ESE 1016,3 10 -
07.08.2020 19:00:00 28,0 19,0 22 12 E - 10 -
07.08.2020 18:00:00 30,0 17,0 24 13 ESE - 10 -
07.08.2020 17:00:00 29,3 18,2 26 14 SE 1015,6 10 0,0
07.08.2020 16:00:00 31,0 16,0 24 13 SSE - 10 -
07.08.2020 15:00:00 31,0 16,0 21 11 S - 10 -
07.08.2020 14:00:00 30,8 17,8 16 9 S 1015,8 10 -
07.08.2020 13:00:00 31,0 14,0 9 5 SSW - 10 -
07.08.2020 12:00:00 31,0 15,0 9 5 WNW - 10 -
07.08.2020 11:00:00 28,6 16,1 11 6 WNW 1016,8 10 0,0
07.08.2020 10:00:00 26,0 18,0 11 6 NW - 10 -
07.08.2020 09:00:00 24,0 18,0 11 6 NNW - 10 -
07.08.2020 08:00:00 21,6 17,4 11 6 NW 1016,9 10 -
07.08.2020 07:00:00 19,0 17,0 9 5 NW - 10 -
07.08.2020 06:00:00 20,0 17,0 8 4 NW - 10 -
07.08.2020 05:00:00 20,0 17,1 9 5 NNW 1016,0 10 0,0
07.08.2020 04:00:00 21,0 18,0 8 4 NW - 10 -
07.08.2020 03:00:00 22,0 18,0 9 5 NW - 10 -
07.08.2020 02:00:00 22,8 19,8 4 2 S 1016,5 10 -
07.08.2020 01:00:00 24,0 21,0 4 2 S - 10 -
07.08.2020 00:00:00 24,0 21,0 8 4 S - 10 -
06.08.2020 23:00:00 24,3 20,5 8 4 S 1016,5 10 0,0
06.08.2020 22:00:00 25,0 20,0 9 5 S - 10 -
06.08.2020 21:00:00 25,0 20,0 9 5 S - 10 -
06.08.2020 20:00:00 25,6 19,6 15 8 SSE 1015,1 10 -
06.08.2020 19:00:00 26,0 20,0 21 11 SE - 10 -
06.08.2020 18:00:00 27,0 19,0 22 12 SE - 10 -
06.08.2020 17:00:00 27,6 18,2 24 13 SSE 1014,5 10 0,0
06.08.2020 16:00:00 28,0 19,0 21 11 SSE - 10 -
06.08.2020 15:00:00 29,0 16,0 18 10 SSE - 10 -
06.08.2020 14:00:00 28,8 15,6 21 11 S 1014,6 10 -
06.08.2020 13:00:00 30,0 14,0 13 7 S - 10 -
06.08.2020 12:00:00 29,0 14,0 9 5 SSW - 10 -
06.08.2020 11:00:00 27,5 13,6 9 5 W 1014,8 10 0,0
06.08.2020 10:00:00 26,0 16,0 9 5 NW - 10 -
06.08.2020 09:00:00 22,0 15,0 9 5 NNW - 10 -
06.08.2020 08:00:00 20,2 14,9 9 5 NW 1014,4 10 -
06.08.2020 07:00:00 19,0 15,0 8 4 WNW - 10 -
06.08.2020 06:00:00 - - - - - - - -
06.08.2020 05:00:00 18,8 15,6 9 5 NW 1013,7 10 0,0
06.08.2020 04:00:00 - - - - - - - -
06.08.2020 03:00:00 21,0 17,0 11 6 WNW - 10 -
06.08.2020 02:00:00 20,3 16,3 13 7 N 1013,6 10 -
06.08.2020 01:00:00 21,0 16,0 8 4 NNW - 10 -
06.08.2020 00:00:00 22,0 17,0 11 6 NW - 10 -
05.08.2020 23:00:00 22,6 15,9 9 5 NNW 1013,5 10 0,0
05.08.2020 22:00:00 24,0 15,0 11 6 NNW - 10 -
05.08.2020 21:00:00 26,0 14,0 16 9 NNW - 10 -
05.08.2020 20:00:00 27,0 13,6 18 10 NW 1011,3 10 -
05.08.2020 19:00:00 29,0 11,0 22 12 NNW - 10 -
05.08.2020 18:00:00 30,0 12,0 24 13 N - 10 -
05.08.2020 17:00:00 30,0 12,0 28 15 NNW 1010,6 10 0,0
05.08.2020 16:00:00 31,0 9,0 28 15 NNW - 10 -
05.08.2020 15:00:00 31,0 10,0 21 11 NNW - 10 -
05.08.2020 14:00:00 31,2 10,8 21 11 NNW 1011,1 10 -
05.08.2020 13:00:00 30,0 11,0 22 12 NNW - 10 -
05.08.2020 12:00:00 29,0 12,0 26 14 NNW - 10 -
05.08.2020 11:00:00 28,2 13,4 29 16 NNW 1011,6 10 0,0
05.08.2020 10:00:00 26,0 14,0 31 17 NNW - 10 -
05.08.2020 09:00:00 24,0 15,0 24 13 N - 10 -
05.08.2020 08:00:00 22,1 15,1 9 5 WNW 1011,6 10 -
05.08.2020 07:00:00 21,0 14,0 13 7 N - 10 -
05.08.2020 06:00:00 22,0 14,0 21 11 N - 10 -
05.08.2020 05:00:00 20,0 13,7 13 7 N 1010,9 10 0,0
05.08.2020 04:00:00 21,0 13,0 9 5 N - 10 -
05.08.2020 03:00:00 21,0 13,0 15 8 N - 10 -
05.08.2020 02:00:00 21,1 12,9 15 8 NW 1011,5 10 -
05.08.2020 01:00:00 21,0 13,0 11 6 NW - 10 -
05.08.2020 00:00:00 21,0 14,0 11 6 NW - 10 -
04.08.2020 23:00:00 22,6 13,2 16 9 NW 1011,8 10 0,0
04.08.2020 22:00:00 23,0 13,0 29 16 NW - 10 -
04.08.2020 21:00:00 23,0 12,0 26 14 NW - 10 -
04.08.2020 20:00:00 24,4 11,5 28 15 NW 1011,0 10 -
04.08.2020 19:00:00 26,0 10,0 31 17 NNW - 10 -
04.08.2020 18:00:00 27,0 10,0 35 19 NW - 10 -
04.08.2020 17:00:00 27,7 10,4 29 16 NW 1010,3 10 0,0
04.08.2020 16:00:00 29,0 11,0 28 15 NW - 10 -
04.08.2020 15:00:00 30,0 11,0 22 12 NW - 10 -
04.08.2020 14:00:00 27,9 9,9 26 14 NW 1011,2 10 -
04.08.2020 13:00:00 28,0 12,0 31 17 NNW - 10 -
04.08.2020 12:00:00 29,0 12,0 28 15 NW - 10 -
04.08.2020 11:00:00 27,9 12,1 31 17 NNW 1011,4 10 0,0
04.08.2020 10:00:00 27,0 13,0 31 17 NNW - 10 -
04.08.2020 09:00:00 26,0 14,0 26 14 NW - 10 -
04.08.2020 08:00:00 24,1 13,6 21 11 NNW 1010,3 10 -
04.08.2020 07:00:00 22,0 16,0 22 12 NNW - 10 -
04.08.2020 06:00:00 21,0 17,0 16 9 NNW - 10 -
04.08.2020 05:00:00 21,1 17,0 4 2 - 1009,7 10 0,0
04.08.2020 04:00:00 22,0 17,0 13 7 N - 10 -
04.08.2020 03:00:00 23,0 18,0 18 10 NNW - 10 -
04.08.2020 02:00:00 23,3 18,1 16 9 NNW 1010,6 10 -
04.08.2020 01:00:00 24,0 19,0 21 11 NW - 10 -
04.08.2020 00:00:00 24,0 19,0 26 14 NNW - 10 -
03.08.2020 23:00:00 24,4 19,4 22 12 NNW 1010,2 10 0,0
03.08.2020 22:00:00 25,0 19,0 31 17 NNW - 10 -

tt = temperature
td = dewpoint
ff = wind speed
dd = wind direction
ppp = reduced air pressure
vv = visibility
rr = precipitation

Next stations